FW1198 Weather Reports


time (UTC)temp
F
wind
direction
speed
knots
gust
knots
rain 1hr
in
rain 24hr
in
rain mn
in
humidity
%
barometer
mb
20260503193108 62 189 1.7 10.4 0.00 0.00 0.00 62 1012.8
20260503191551 62 163 6.1 11.3 0.00 0.00 0.00 60 1012.7
20260503190100 62 178 4.3 10.4 0.00 0.00 0.00 62 1012.8
20260503184547 61 212 3.5 8.7 0.00 0.00 0.00 62 1012.8
20260503183058 60 261 2.6 5.2 0.00 0.00 0.00 66 1012.9
20260503181548 59 179 1.7 7.0 0.00 0.00 0.00 67 1012.8
20260503180055 59 251 0.9 5.2 0.00 0.00 0.00 70 1013.0
20260503174548 58 109 2.6 7.8 0.00 0.00 0.00 70 1013.0
20260503173111 58 248 4.3 11.3 0.00 0.00 0.00 71 1012.9
20260503171554 59 229 3.5 7.8 0.00 0.00 0.00 70 1012.8
20260503081550 55 299 1.7 4.3 0.00 0.00 0.00 77 1011.7
20260503071602 55 346 1.7 4.3 0.00 0.00 0.00 77 1011.9
20260503054543 56 28 2.6 7.8 0.00 0.00 0.00 76 1012.2
20260503053046 56 19 1.7 6.1 0.00 0.00 0.00 76 1012.3
20260503051555 56 347 2.6 5.2 0.00 0.00 0.00 76 1012.3
20260503050048 56 26 5.2 8.7 0.00 0.00 0.00 76 1012.3
20260503044544 56 351 1.7 7.8 0.00 0.00 0.00 76 1012.1
20260503043041 56 360 1.7 6.1 0.00 0.00 0.00 76 1012.1
20260503041548 56 317 2.6 7.0 0.00 0.00 0.00 75 1012.1
20260503040049 56 9 5.2 8.7 0.00 0.00 0.00 75 1011.9
20260503034549 57 9 4.3 9.6 0.00 0.00 0.00 74 1011.7
20260503033046 57 325 3.5 9.6 0.00 0.00 0.00 74 1011.6
20260503031543 57 22 4.3 8.7 0.00 0.00 0.00 74 1011.4
20260503030050 58 360 3.5 8.7 0.00 0.00 0.00 74 1011.3
20260503024547 58 17 3.5 12.2 0.00 0.00 0.00 76 1011.1
20260503023048 58 19 6.1 12.2 0.00 0.00 0.00 75 1011.0
20260503021549 59 9 4.3 13.0 0.00 0.00 0.00 73 1010.9
20260503020050 59 360 6.1 11.3 0.00 0.00 0.00 73 1010.9
20260503014619 60 345 6.1 11.3 0.00 0.00 0.00 73 1010.9
20260503013049 60 5 7.0 10.4 0.00 0.00 0.00 73 1010.9
20260503011550 61 5 6.1 12.2 0.00 0.00 0.00 72 1011.0
20260503010054 61 328 6.1 11.3 0.00 0.00 0.00 72 1011.0
20260503004600 62 11 7.8 13.0 0.00 0.00 0.00 71 1010.9
20260503003053 62 34 6.1 12.2 0.00 0.00 0.00 70 1011.0
20260503001550 63 322 6.1 13.9 0.00 0.00 0.00 70 1011.0
20260503000045 63 347 6.1 15.6 0.00 0.00 0.00 68 1011.0
20260502234547 64 333 6.1 13.9 0.00 0.00 0.00 68 1010.9
20260502233052 65 5 6.1 12.2 0.00 0.00 0.00 66 1011.0
20260502231549 65 360 5.2 11.3 0.00 0.00 0.00 66 1011.2
20260502230042 66 34 3.5 10.4 0.00 0.00 0.00 66 1011.3
20260502224602 65 5 6.1 11.3 0.00 0.00 0.00 66 1011.5
20260502223047 66 17 4.3 10.4 0.00 0.00 0.00 65 1011.6
20260502221552 66 342 4.3 12.2 0.00 0.00 0.00 66 1011.9
20260502220051 67 317 4.3 11.3 0.00 0.00 0.00 65 1012.0
20260502214549 66 295 3.5 9.6 0.00 0.00 0.00 66 1012.2
20260502213103 66 274 3.5 10.4 0.00 0.00 0.00 66 1012.3
20260502211559 66 319 4.3 12.2 0.00 0.00 0.00 67 1012.3
20260502210043 66 360 6.1 12.2 0.00 0.00 0.00 65 1012.5
20260502204549 67 0 0.9 6.1 0.00 0.00 0.00 65 1012.8
20260502203058 66 82 2.6 6.1 0.00 0.00 0.00 65 1013.0
20260502201552 65 173 4.3 7.8 0.00 0.00 0.00 66 1013.2
20260502200043 65 120 2.6 7.8 0.00 0.00 0.00 66 1013.4
20260502194559 64 164 2.6 6.1 0.00 0.00 0.00 69 1013.5